When you browse on this site, cookies collect data to enhance your experience and personalize the content and advertising you see.
Visit our Privacy Policy to learn more. By continuing to use the site, you agree to this use of cookies and data.
  • In Latvia
  • List of Countries
  • For 7 days
  • Water Temperature
  • Satellite Maps
  • Weather Map
  • Weather Widgets
  • user-avatar
    Login

    Hourly Weather Seli

    Today, 24 May, Friday

    Time Temperature Precipitation Wind Pressure Humidity
    00:00 +20°C° 0 mm 5 mps 746 mmHg 57%
    01:00 +20°C° 0 mm 5 mps 746 mmHg 59%
    02:00 +19°C° 0 mm 5 mps 746 mmHg 61%
    03:00 +19°C° 0 mm 5 mps 746 mmHg 64%
    04:00 +17°C° 0 mm 5 mps 746 mmHg 67%
    05:00 +17°C° 0 mm 5 mps 746 mmHg 70%
    06:00 +19°C° 0 mm 5 mps 746 mmHg 64%
    07:00 +21°C° 0 mm 5 mps 746 mmHg 57%
    08:00 +22°C° 0 mm 6 mps 746 mmHg 51%
    09:00 +23°C° 0 mm 6 mps 747 mmHg 49%
    10:00 +24°C° 0 mm 7 mps 747 mmHg 47%
    11:00 +24°C° 0 mm 7 mps 747 mmHg 45%
    12:00 +26°C° 0 mm 7 mps 747 mmHg 46%
    13:00 +26°C° 0 mm 7 mps 747 mmHg 46%
    14:00 +26°C° 0 mm 7 mps 747 mmHg 46%
    15:00 +24°C° 0 mm 7 mps 747 mmHg 48%
    16:00 +24°C° 0 mm 6 mps 747 mmHg 51%
    17:00 +23°C° 0 mm 6 mps 747 mmHg 53%
    18:00 +22°C° 0 mm 5 mps 747 mmHg 60%
    19:00 +21°C° 0 mm 5 mps 747 mmHg 67%
    20:00 +19°C° 0 mm 4 mps 747 mmHg 74%
    21:00 +19°C° 0 mm 4 mps 747 mmHg 78%
    22:00 +17°C° 0 mm 5 mps 748 mmHg 81%
    23:00 +17°C° 0 mm 5 mps 748 mmHg 85%

    Tomorrow, 25 May, Saturday

    Time Temperature Precipitation Wind Pressure Humidity
    00:00 +17°C° 0 mm 5 mps 748 mmHg 87%
    01:00 +17°C° 0 mm 4 mps 748 mmHg 88%
    02:00 +17°C° 0 mm 4 mps 748 mmHg 90%
    03:00 +17°C° 0 mm 4 mps 748 mmHg 90%
    04:00 +17°C° 0 mm 4 mps 748 mmHg 90%
    05:00 +15°C° 0 mm 4 mps 748 mmHg 91%
    06:00 +18°C° 0 mm 4 mps 748 mmHg 82%
    07:00 +20°C° 0 mm 4 mps 748 mmHg 74%
    08:00 +21°C° 0 mm 3 mps 748 mmHg 66%
    09:00 +24°C° 0 mm 3 mps 749 mmHg 61%
    10:00 +25°C° 0 mm 3 mps 749 mmHg 55%
    11:00 +26°C° 0 mm 3 mps 749 mmHg 50%
    12:00 +26°C° 0 mm 4 mps 749 mmHg 50%
    13:00 +27°C° 0 mm 4 mps 749 mmHg 50%
    14:00 +27°C° 0 mm 4 mps 749 mmHg 50%
    15:00 +27°C° 0 mm 4 mps 749 mmHg 51%
    16:00 +26°C° 0 mm 4 mps 749 mmHg 52%
    17:00 +26°C° 0 mm 4 mps 748 mmHg 53%
    18:00 +23°C° 0 mm 4 mps 749 mmHg 59%
    19:00 +22°C° 0 mm 3 mps 749 mmHg 66%
    20:00 +20°C° 0 mm 3 mps 749 mmHg 72%
    21:00 +20°C° 0 mm 3 mps 749 mmHg 73%
    22:00 +19°C° 0 mm 2 mps 749 mmHg 74%
    23:00 +19°C° 0 mm 2 mps 749 mmHg 75%

    Day after tomorrow, 26 May, Sunday

    Time Temperature Precipitation Wind Pressure Humidity
    00:00 +18°C° 0 mm 2 mps 749 mmHg 73%
    01:00 +18°C° 0 mm 2 mps 749 mmHg 72%
    02:00 +18°C° 0 mm 2 mps 748 mmHg 70%
    03:00 +18°C° 0 mm 2 mps 748 mmHg 69%
    04:00 +18°C° 0 mm 1 mps 748 mmHg 68%
    05:00 +18°C° 0 mm 1 mps 748 mmHg 67%
    06:00 +20°C° 0 mm 1 mps 748 mmHg 61%
    07:00 +22°C° 0 mm 1 mps 748 mmHg 54%
    08:00 +24°C° 0 mm 1 mps 748 mmHg 48%
    09:00 +25°C° 0 mm 1 mps 749 mmHg 47%
    10:00 +26°C° 0 mm 2 mps 749 mmHg 47%
    11:00 +26°C° 0 mm 2 mps 749 mmHg 46%
    12:00 +27°C° 0 mm 2 mps 749 mmHg 47%
    13:00 +27°C° 0 mm 2 mps 749 mmHg 48%
    14:00 +27°C° 0 mm 3 mps 749 mmHg 48%
    15:00 +26°C° 0 mm 2 mps 748 mmHg 50%
    16:00 +26°C° 0 mm 2 mps 748 mmHg 51%
    17:00 +25°C° 0 mm 2 mps 748 mmHg 53%
    18:00 +24°C° 0 mm 2 mps 748 mmHg 57%
    19:00 +23°C° 0 mm 2 mps 748 mmHg 61%
    20:00 +21°C° 0 mm 2 mps 748 mmHg 64%
    21:00 +21°C° 0 mm 2 mps 748 mmHg 66%
    22:00 +21°C° 0 mm 2 mps 748 mmHg 68%
    23:00 +21°C° 0 mm 2 mps 748 mmHg 70%

    27 May, Monday

    Time Temperature Precipitation Wind Pressure Humidity
    00:00 +20°C° 0 mm 2 mps 747 mmHg 72%
    01:00 +20°C° 0 mm 2 mps 747 mmHg 74%
    02:00 +20°C° 0 mm 2 mps 747 mmHg 76%
    03:00 +19°C° 0 mm 2 mps 747 mmHg 76%
    04:00 +19°C° 0 mm 2 mps 747 mmHg 76%
    05:00 +19°C° 0 mm 2 mps 747 mmHg 76%
    06:00 +21°C° 0 mm 2 mps 747 mmHg 65%
    07:00 +24°C° 0 mm 2 mps 747 mmHg 54%
    08:00 +26°C° 0 mm 2 mps 747 mmHg 43%
    09:00 +27°C° 0 mm 2 mps 747 mmHg 39%
    10:00 +28°C° 0 mm 3 mps 747 mmHg 35%
    11:00 +29°C° 0 mm 4 mps 747 mmHg 31%
    12:00 +29°C° 0.1 mm 3 mps 747 mmHg 33%
    13:00 +29°C° 0.1 mm 3 mps 747 mmHg 35%
    14:00 +28°C° 0.1 mm 3 mps 746 mmHg 37%
    15:00 +28°C° 0.1 mm 3 mps 746 mmHg 38%
    16:00 +28°C° 0.1 mm 3 mps 746 mmHg 39%
    17:00 +27°C° 0.1 mm 2 mps 746 mmHg 40%
    18:00 +26°C° 0 mm 3 mps 746 mmHg 43%
    19:00 +25°C° 0 mm 3 mps 746 mmHg 47%
    20:00 +22°C° 0 mm 3 mps 746 mmHg 50%
    21:00 +22°C° 0 mm 3 mps 746 mmHg 45%
    22:00 +22°C° 0 mm 4 mps 746 mmHg 41%
    23:00 +23°C° 0 mm 4 mps 746 mmHg 36%

    28 May, Tuesday

    Time Temperature Precipitation Wind Pressure Humidity
    00:00 +22°C° 0 mm 4 mps 746 mmHg 37%
    01:00 +22°C° 0 mm 4 mps 746 mmHg 37%
    02:00 +22°C° 0 mm 4 mps 746 mmHg 38%
    03:00 +21°C° 0 mm 3 mps 746 mmHg 39%
    04:00 +21°C° 0 mm 3 mps 746 mmHg 41%
    05:00 +21°C° 0 mm 2 mps 746 mmHg 42%
    06:00 +23°C° 0 mm 2 mps 746 mmHg 41%
    07:00 +25°C° 0 mm 2 mps 746 mmHg 39%
    08:00 +27°C° 0 mm 1 mps 747 mmHg 37%
    09:00 +27°C° 0 mm 2 mps 747 mmHg 39%
    10:00 +28°C° 0 mm 2 mps 747 mmHg 42%
    11:00 +28°C° 0 mm 3 mps 747 mmHg 44%
    12:00 +28°C° 0 mm 3 mps 747 mmHg 46%
    13:00 +29°C° 0 mm 4 mps 747 mmHg 48%
    14:00 +29°C° 0 mm 4 mps 747 mmHg 50%
    15:00 +28°C° 0 mm 4 mps 747 mmHg 52%
    16:00 +28°C° 0 mm 5 mps 747 mmHg 53%
    17:00 +28°C° 0 mm 5 mps 747 mmHg 55%
    18:00 +26°C° 0 mm 4 mps 748 mmHg 60%
    19:00 +25°C° 0 mm 4 mps 748 mmHg 66%
    20:00 +22°C° 0 mm 3 mps 748 mmHg 71%
    21:00 +22°C° 0 mm 3 mps 748 mmHg 71%
    22:00 +21°C° 0 mm 3 mps 748 mmHg 71%
    23:00 +21°C° 0 mm 3 mps 748 mmHg 72%

    29 May, Wednesday

    Time Temperature Precipitation Wind Pressure Humidity
    00:00 +20°C° 0 mm 3 mps 748 mmHg 73%
    01:00 +20°C° 0 mm 3 mps 748 mmHg 73%
    02:00 +20°C° 0 mm 3 mps 748 mmHg 74%
    03:00 +19°C° 0 mm 3 mps 748 mmHg 75%
    04:00 +19°C° 0 mm 4 mps 748 mmHg 77%
    05:00 +19°C° 0 mm 4 mps 748 mmHg 78%
    06:00 +21°C° 0 mm 4 mps 748 mmHg 71%
    07:00 +22°C° 0 mm 4 mps 749 mmHg 64%
    08:00 +25°C° 0 mm 3 mps 749 mmHg 57%
    09:00 +26°C° 0 mm 4 mps 749 mmHg 53%
    10:00 +27°C° 0 mm 4 mps 749 mmHg 50%
    11:00 +29°C° 0 mm 4 mps 749 mmHg 46%
    12:00 +29°C° 0 mm 5 mps 749 mmHg 46%
    13:00 +29°C° 0 mm 5 mps 749 mmHg 46%
    14:00 +30°C° 0 mm 5 mps 749 mmHg 46%
    15:00 +29°C° 0 mm 5 mps 749 mmHg 48%
    16:00 +29°C° 0 mm 4 mps 749 mmHg 50%
    17:00 +28°C° 0 mm 4 mps 749 mmHg 52%
    18:00 +27°C° 0 mm 3 mps 749 mmHg 58%
    19:00 +25°C° 0 mm 3 mps 749 mmHg 64%
    20:00 +24°C° 0 mm 2 mps 749 mmHg 70%
    21:00 +23°C° 0 mm 2 mps 749 mmHg 70%
    22:00 +21°C° 0 mm 2 mps 749 mmHg 70%
    23:00 +22°C° 0 mm 1 mps 749 mmHg 70%
    Show more